SHT21F EGJB-EGLL

Flight info

Callsign SHT21F
Flight time N/A
Altitude 19000
Route ORIST L982 ROXOG
Aircraft A319/M-SDE3FGHIRWY/LB1

Departure

Time 2026-04-28 13:43
Airport Guernsey Airport (EGJB)

Arrival

Time N/A
Airport London Heathrow Airport (EGLL)
Time Latitude Longitude Altitude Speed Heading
2026-04-28 13:15 49.43271 -2.59563 328 ft 0 kts 178°
2026-04-28 13:36 49.43287 -2.59564 327 ft 4 kts 178°
2026-04-28 13:36 49.43314 -2.59565 328 ft 4 kts 178°
2026-04-28 13:36 49.43336 -2.59566 331 ft 4 kts 188°
2026-04-28 13:36 49.43358 -2.59551 331 ft 4 kts 240°
2026-04-28 13:37 49.43365 -2.59513 332 ft 4 kts 267°
2026-04-28 13:37 49.43365 -2.59498 329 ft 0 kts 267°
2026-04-28 13:40 49.43365 -2.59511 332 ft 5 kts 267°
2026-04-28 13:40 49.43362 -2.59609 322 ft 13 kts 267°
2026-04-28 13:40 49.43348 -2.59781 327 ft 19 kts 260°
2026-04-28 13:40 49.43339 -2.60045 311 ft 31 kts 268°
2026-04-28 13:41 49.43329 -2.60413 294 ft 27 kts 268°
2026-04-28 13:41 49.43326 -2.60576 295 ft 11 kts 268°
2026-04-28 13:41 49.43338 -2.60709 297 ft 15 kts 280°
2026-04-28 13:41 49.43356 -2.60862 305 ft 14 kts 280°
2026-04-28 13:42 49.43365 -2.60970 312 ft 7 kts 267°
2026-04-28 13:42 49.43362 -2.61066 311 ft 12 kts 268°
2026-04-28 13:42 49.43359 -2.61214 313 ft 16 kts 272°
2026-04-28 13:42 49.43400 -2.61319 316 ft 9 kts 312°
2026-04-28 13:43 49.43461 -2.61352 302 ft 11 kts 22°
2026-04-28 13:43 49.43474 -2.61129 314 ft 58 kts 88°
2026-04-28 13:43 49.43516 -2.59966 403 ft 145 kts 83°
2026-04-28 13:43 49.43556 -2.58278 1102 ft 172 kts 85°
2026-04-28 13:44 49.43546 -2.56325 1967 ft 190 kts 86°
2026-04-28 13:44 49.43527 -2.54236 2994 ft 200 kts 87°
2026-04-28 13:44 49.43576 -2.52087 3770 ft 200 kts 85°
2026-04-28 13:44 49.43901 -2.50030 4342 ft 205 kts 58°
2026-04-28 13:45 49.44989 -2.48629 5570 ft 213 kts 27°
2026-04-28 13:45 49.45991 -2.48164 6148 ft 232 kts 19°
2026-04-28 13:45 49.47647 -2.47527 7087 ft 255 kts 17°
2026-04-28 13:45 49.49383 -2.46881 8254 ft 265 kts 17°
2026-04-28 13:46 49.51218 -2.46205 9607 ft 270 kts 18°
2026-04-28 13:46 49.53067 -2.45519 10840 ft 276 kts 18°
2026-04-28 13:46 49.54922 -2.44824 11988 ft 282 kts 16°
2026-04-28 13:46 49.56869 -2.44091 13256 ft 285 kts 18°
2026-04-28 13:47 49.58778 -2.43366 14454 ft 289 kts 17°
2026-04-28 13:47 49.60744 -2.42614 15501 ft 294 kts 16°
2026-04-28 13:47 49.62741 -2.41850 16574 ft 298 kts 16°
2026-04-28 13:47 49.64762 -2.41077 17673 ft 301 kts 17°
2026-04-28 13:48 49.66809 -2.40263 18669 ft 307 kts 19°
2026-04-28 13:48 49.68797 -2.39068 19048 ft 306 kts 28°
2026-04-28 13:48 49.70628 -2.37377 19187 ft 312 kts 37°
2026-04-28 13:48 49.72356 -2.35091 19213 ft 342 kts 46°
2026-04-28 13:49 49.73972 -2.32223 19219 ft 361 kts 50°
2026-04-28 13:49 49.75603 -2.29239 19220 ft 366 kts 50°
2026-04-28 13:49 49.77255 -2.26227 19221 ft 367 kts 50°
2026-04-28 13:49 49.78913 -2.23211 19221 ft 369 kts 50°
2026-04-28 13:50 49.80575 -2.20191 19220 ft 369 kts 50°
2026-04-28 13:50 49.82237 -2.17166 19222 ft 369 kts 50°
2026-04-28 13:50 49.83898 -2.14133 19225 ft 369 kts 50°
2026-04-28 13:50 49.85555 -2.11101 19226 ft 369 kts 50°
2026-04-28 13:51 49.87213 -2.08063 19231 ft 369 kts 50°
2026-04-28 13:51 49.88866 -2.05036 19230 ft 367 kts 50°
2026-04-28 13:51 49.90518 -2.02003 19227 ft 368 kts 50°
2026-04-28 13:51 49.92165 -1.98969 19228 ft 368 kts 50°
2026-04-28 13:52 49.93815 -1.95927 19235 ft 368 kts 50°
2026-04-28 13:52 49.95468 -1.92880 19240 ft 368 kts 50°
2026-04-28 13:52 49.97114 -1.89840 19240 ft 368 kts 50°
2026-04-28 13:52 49.98779 -1.86827 19241 ft 368 kts 47°
2026-04-28 13:53 50.00714 -1.84202 19245 ft 370 kts 37°
2026-04-28 13:53 50.02933 -1.82168 19249 ft 372 kts 28°
2026-04-28 13:53 50.05248 -1.80370 19252 ft 372 kts 28°
2026-04-28 13:53 50.07561 -1.78560 19249 ft 372 kts 28°
2026-04-28 13:54 50.09868 -1.76738 19252 ft 372 kts 29°
2026-04-28 13:54 50.12139 -1.74819 19248 ft 371 kts 34°
2026-04-28 13:54 50.14181 -1.72389 19252 ft 369 kts 41°
2026-04-28 13:54 50.16149 -1.69811 19249 ft 370 kts 41°
2026-04-28 13:55 50.18138 -1.67233 19251 ft 370 kts 41°
2026-04-28 13:55 50.20119 -1.64671 19242 ft 370 kts 41°
2026-04-28 13:55 50.22073 -1.62143 19245 ft 370 kts 41°
2026-04-28 13:55 50.24057 -1.59577 19251 ft 370 kts 41°
2026-04-28 13:56 50.26123 -1.57182 19252 ft 372 kts 33°
2026-04-28 13:56 50.28451 -1.55389 19253 ft 375 kts 23°
2026-04-28 13:56 50.30943 -1.54139 19258 ft 376 kts 20°
2026-04-28 13:56 50.33442 -1.52929 19261 ft 376 kts 20°
2026-04-28 13:57 50.35974 -1.51692 19263 ft 376 kts 20°
2026-04-28 13:57 50.38470 -1.50469 19262 ft 376 kts 20°
2026-04-28 13:57 50.40940 -1.49253 19266 ft 376 kts 20°
2026-04-28 13:57 50.43435 -1.48025 19264 ft 375 kts 20°
2026-04-28 13:58 50.45927 -1.46794 19263 ft 375 kts 21°
2026-04-28 13:58 50.48409 -1.45561 19268 ft 374 kts 21°
2026-04-28 13:58 50.50892 -1.44332 19269 ft 374 kts 21°
2026-04-28 13:58 50.53361 -1.43060 19276 ft 372 kts 24°
2026-04-28 13:59 50.55678 -1.41291 19274 ft 370 kts 31°
2026-04-28 13:59 50.57933 -1.39351 19278 ft 369 kts 31°
2026-04-28 13:59 50.60193 -1.37411 19261 ft 371 kts 32°
2026-04-28 13:59 50.62463 -1.35461 19247 ft 373 kts 32°
2026-04-28 14:00 50.64743 -1.33504 19224 ft 374 kts 32°
2026-04-28 14:00 50.67025 -1.31545 19238 ft 373 kts 32°
2026-04-28 14:00 50.69306 -1.29579 19247 ft 373 kts 32°
2026-04-28 14:00 50.71563 -1.27630 19257 ft 361 kts 33°
2026-04-28 14:01 50.73701 -1.25792 19267 ft 338 kts 33°
2026-04-28 14:01 50.75706 -1.24075 19270 ft 317 kts 33°
2026-04-28 14:01 50.77578 -1.22381 19049 ft 306 kts 36°
2026-04-28 14:01 50.79363 -1.20586 18799 ft 303 kts 38°
2026-04-28 14:02 50.81117 -1.18736 18555 ft 302 kts 38°
2026-04-28 14:02 50.82859 -1.16878 18281 ft 302 kts 38°
2026-04-28 14:02 50.84602 -1.15025 18004 ft 301 kts 38°
2026-04-28 14:02 50.86343 -1.13191 17729 ft 300 kts 38°
2026-04-28 14:03 50.88082 -1.11376 17429 ft 298 kts 38°
2026-04-28 14:03 50.89817 -1.09573 16919 ft 297 kts 38°
2026-04-28 14:03 50.91547 -1.07778 16331 ft 298 kts 38°
2026-04-28 14:03 50.93284 -1.05976 15770 ft 298 kts 37°
2026-04-28 14:04 50.95002 -1.04194 15444 ft 291 kts 37°
2026-04-28 14:04 50.96688 -1.02446 15037 ft 288 kts 37°
2026-04-28 14:04 50.98364 -1.00709 14587 ft 286 kts 37°
2026-04-28 14:04 51.00066 -0.99158 14177 ft 288 kts 26°
2026-04-28 14:05 51.02064 -0.98664 13731 ft 298 kts
2026-04-28 14:05 51.04117 -0.99280 13322 ft 300 kts 351°
2026-04-28 14:05 51.06145 -1.00072 13267 ft 301 kts 351°
2026-04-28 14:05 51.08186 -1.00894 13275 ft 302 kts 351°
2026-04-28 14:06 51.10229 -1.01706 13273 ft 302 kts 351°
2026-04-28 14:06 51.12264 -1.02508 12985 ft 299 kts 351°
2026-04-28 14:06 51.14278 -1.03316 12539 ft 298 kts 351°
2026-04-28 14:06 51.16284 -1.04135 12104 ft 297 kts 350°
2026-04-28 14:07 51.18281 -1.04935 11700 ft 295 kts 350°
2026-04-28 14:07 51.20269 -1.05697 11335 ft 293 kts 352°
2026-04-28 14:07 51.22258 -1.06085 10923 ft 284 kts
2026-04-28 14:07 51.24126 -1.05371 10516 ft 273 kts 30°
2026-04-28 14:08 51.25650 -1.03670 10283 ft 267 kts 49°
2026-04-28 14:08 51.26678 -1.01254 10273 ft 263 kts 68°
2026-04-28 14:08 51.27117 -0.98463 10273 ft 261 kts 84°
2026-04-28 14:08 51.27301 -0.95565 10275 ft 263 kts 84°
2026-04-28 14:09 51.27483 -0.92699 10271 ft 262 kts 84°
2026-04-28 14:09 51.27670 -0.89802 10274 ft 261 kts 84°
2026-04-28 14:09 51.27858 -0.86914 10273 ft 262 kts 84°
2026-04-28 14:09 51.28046 -0.84009 10276 ft 263 kts 84°
2026-04-28 14:10 51.28235 -0.81110 10273 ft 261 kts 84°
2026-04-28 14:10 51.28418 -0.78305 10176 ft 248 kts 84°
2026-04-28 14:10 51.28591 -0.75620 10043 ft 238 kts 84°
2026-04-28 14:10 51.28755 -0.73034 9901 ft 230 kts 84°
2026-04-28 14:11 51.28915 -0.70491 9686 ft 225 kts 84°
2026-04-28 14:11 51.29069 -0.68015 9366 ft 224 kts 84°
2026-04-28 14:11 51.29221 -0.65561 9045 ft 224 kts 84°
2026-04-28 14:11 51.29375 -0.63097 8754 ft 222 kts 84°
2026-04-28 14:12 51.29527 -0.60646 8487 ft 220 kts 84°
2026-04-28 14:12 51.29676 -0.58224 8173 ft 219 kts 84°
2026-04-28 14:12 51.29825 -0.55801 8001 ft 221 kts 84°
2026-04-28 14:12 51.29974 -0.53367 7973 ft 220 kts 84°
2026-04-28 14:13 51.30123 -0.50941 7989 ft 219 kts 84°
2026-04-28 14:13 51.30272 -0.48516 7990 ft 219 kts 84°
2026-04-28 14:13 51.30421 -0.46080 7982 ft 221 kts 84°
2026-04-28 14:13 51.30591 -0.43642 7986 ft 221 kts 80°
2026-04-28 14:14 51.31355 -0.41553 7971 ft 226 kts 43°
2026-04-28 14:14 51.32874 -0.40760 8010 ft 242 kts
2026-04-28 14:14 51.34466 -0.41739 8003 ft 258 kts 323°
2026-04-28 14:14 51.35590 -0.44039 8006 ft 266 kts 307°
2026-04-28 14:15 51.36871 -0.46082 8007 ft 258 kts 334°
2026-04-28 14:15 51.38533 -0.46846 8011 ft 244 kts
2026-04-28 14:15 51.40107 -0.46168 8011 ft 231 kts 37°
2026-04-28 14:15 51.41137 -0.44326 8011 ft 222 kts 69°
2026-04-28 14:16 51.41327 -0.41932 8011 ft 219 kts 100°
2026-04-28 14:16 51.40617 -0.39781 8010 ft 225 kts 131°
2026-04-28 14:16 51.39240 -0.38594 8009 ft 237 kts 163°
2026-04-28 14:16 51.37564 -0.38769 8009 ft 251 kts 194°
2026-04-28 14:17 51.36100 -0.40368 8010 ft 262 kts 226°
2026-04-28 14:17 51.35287 -0.42992 8010 ft 268 kts 258°
2026-04-28 14:17 51.35294 -0.45956 8013 ft 269 kts 279°
2026-04-28 14:17 51.35581 -0.48922 8011 ft 269 kts 281°
2026-04-28 14:18 51.35897 -0.51884 8011 ft 270 kts 281°
2026-04-28 14:18 51.36219 -0.54840 8009 ft 270 kts 281°
2026-04-28 14:18 51.36544 -0.57795 8009 ft 270 kts 281°
2026-04-28 14:18 51.36868 -0.60758 8010 ft 270 kts 281°
2026-04-28 14:19 51.37194 -0.63719 8010 ft 271 kts 281°
2026-04-28 14:19 51.37520 -0.66681 8009 ft 270 kts 281°
2026-04-28 14:19 51.37850 -0.69641 8006 ft 270 kts 281°
2026-04-28 14:19 51.38181 -0.72604 8007 ft 270 kts 281°
2026-04-28 14:20 51.38510 -0.75556 8008 ft 270 kts 281°
2026-04-28 14:20 51.38838 -0.78519 8006 ft 270 kts 281°
2026-04-28 14:20 51.39163 -0.81481 8006 ft 270 kts 281°
2026-04-28 14:20 51.39489 -0.84441 8005 ft 270 kts 281°
2026-04-28 14:21 51.39817 -0.87402 8004 ft 269 kts 281°
2026-04-28 14:21 51.40296 -0.90280 7894 ft 266 kts 298°
2026-04-28 14:21 51.41453 -0.92481 7547 ft 255 kts 330°
2026-04-28 14:21 51.43056 -0.93412 7227 ft 241 kts
2026-04-28 14:22 51.44623 -0.92887 6903 ft 226 kts 35°
2026-04-28 14:22 51.45671 -0.91158 6589 ft 214 kts 67°
2026-04-28 14:22 51.45876 -0.88856 6270 ft 211 kts 99°
2026-04-28 14:22 51.45173 -0.86811 6042 ft 218 kts 133°
2026-04-28 14:23 51.43772 -0.85767 6005 ft 234 kts 166°
2026-04-28 14:23 51.42142 -0.86121 6001 ft 249 kts 198°
2026-04-28 14:23 51.40765 -0.87866 5999 ft 260 kts 231°
2026-04-28 14:23 51.40085 -0.90544 6002 ft 264 kts 262°
2026-04-28 14:24 51.39982 -0.93488 6002 ft 265 kts 270°
2026-04-28 14:24 51.39965 -0.96442 6005 ft 265 kts 270°
2026-04-28 14:24 51.39968 -0.99387 6005 ft 264 kts 271°
2026-04-28 14:24 51.40051 -1.02308 5995 ft 259 kts 283°
2026-04-28 14:25 51.40796 -1.04739 6005 ft 231 kts 318°
2026-04-28 14:25 51.42055 -1.05976 6006 ft 202 kts 352°
2026-04-28 14:25 51.43412 -1.06382 6012 ft 196 kts 360°
2026-04-28 14:25 51.44761 -1.06663 6010 ft 195 kts
2026-04-28 14:26 51.45673 -1.06842 6010 ft 195 kts
2026-04-28 14:26 51.47017 -1.06966 5998 ft 189 kts 18°
2026-04-28 14:26 51.48081 -1.06006 6006 ft 172 kts 57°
2026-04-28 14:26 51.48408 -1.04246 6008 ft 168 kts 96°